This is the latest recevied weather packets stored in our database for station/object DN9EL-10. If no packets are shown the sender has not sent any weather packets the latest 1 day(s).
| Time | Temp. | Humidity | Pressure | Rain* | Wind** | Luminosity | Snow |
|---|---|---|---|---|---|---|---|
| 1777788217 | 10° C | 43% | 961.2 hPa | - | - | - | - |
| 1777787317 | 10° C | 43% | 961.1 hPa | - | - | - | - |
| 1777786417 | 9.44° C | 43% | 961.1 hPa | - | - | - | - |
| 1777785517 | 9.44° C | 44% | 961.1 hPa | - | - | - | - |
| 1777784617 | 9.44° C | 44% | 961.2 hPa | - | - | - | - |
| 1777783717 | 9.44° C | 44% | 961.1 hPa | - | - | - | - |
| 1777782817 | 9.44° C | 44% | 961.2 hPa | - | - | - | - |
| 1777781917 | 9.44° C | 45% | 961.2 hPa | - | - | - | - |
| 1777781017 | 10° C | 45% | 961.2 hPa | - | - | - | - |
| 1777780117 | 10° C | 44% | 961.2 hPa | - | - | - | - |
| 1777779217 | 10° C | 44% | 961.1 hPa | - | - | - | - |
| 1777778316 | 10° C | 44% | 961 hPa | - | - | - | - |
| 1777777416 | 10.56° C | 43% | 961.1 hPa | - | - | - | - |
| 1777776516 | 10.56° C | 43% | 961.2 hPa | - | - | - | - |
| 1777775616 | 10.56° C | 43% | 961.2 hPa | - | - | - | - |
| 1777774716 | 10.56° C | 43% | 961.4 hPa | - | - | - | - |
| 1777773816 | 11.11° C | 43% | 961.5 hPa | - | - | - | - |
| 1777772916 | 11.11° C | 44% | 961.7 hPa | - | - | - | - |
| 1777772016 | 11.67° C | 43% | 961.8 hPa | - | - | - | - |
| 1777771116 | 11.67° C | 43% | 961.7 hPa | - | - | - | - |
| 1777770216 | 11.67° C | 42% | 961.9 hPa | - | - | - | - |
| 1777769316 | 12.22° C | 42% | 961.9 hPa | - | - | - | - |
| 1777768416 | 12.22° C | 41% | 961.9 hPa | - | - | - | - |
| 1777767516 | 12.78° C | 41% | 961.9 hPa | - | - | - | - |
| 1777766615 | 12.78° C | 41% | 962 hPa | - | - | - | - |
* Rain since midnight (hover to see other rain measurements)
** Current wind speed in m/s (hover to see current wind gust speed)